Weather History for KASL - December, 2012

Change the Weather History Date:

Sunday, December 9, 2012

  Actual Average (KGGG) Record (KGGG)
Temperature  
Mean Temperature 62 °F 49 °F  
Max Temperature 73 °F 59 °F 83 °F (1939)
Min Temperature 51 °F 38 °F 17 °F (2005)
Degree Days  
Heating Degree Days 3 16  
Month to date heating degree days 139  
Since 1 July heating degree days 511  
Cooling Degree Days 0 0  
Month to date cooling degree days 0  
Year to date cooling degree days 2417  
Growing Degree Days 12 (Base 50)    
Moisture  
Dew Point 60 °F    
Average Humidity 81    
Maximum Humidity 94    
Minimum Humidity 69    
Precipitation  
Precipitation 0.14 in 0.16 in 1.69 in (1986)
Month to date precipitation 1.46  
Year to date precipitation 44.52  
Snow  
Snow 0.00 in - - ()
Month to date snowfall  
Since 1 July snowfall  
Snow Depth -    
Sea Level Pressure  
Sea Level Pressure 29.86 in    
Wind  
Wind Speed 9 mph (SSW)    
Max Wind Speed 18 mph    
Max Gust Speed 25 mph    
Visibility 9 miles    
Events      
T = Trace of Precipitation, MM = Missing Value Source: NWS Daily Summary

Daily Weather History Graph

Daily Weather History Graph

Search for Another Location

Airport or City:

Trip Planner

Search our weather history database for the weather conditions in past years. The results will help you decide how hot, cold, wet, or windy it might be!

Date:

Astronomy

Dec. 09, 2012 Rise Set
Actual Time 7:07 AM CST 5:11 PM CST
Civil Twilight 6:40 AM CST 5:38 PM CST
Nautical Twilight 6:10 AM CST 6:09 PM CST
Astronomical Twilight 5:40 AM CST 6:39 PM CST
Moon 2:51 AM CST (12/9) 2:10 PM CST (12/9)
Length of Visible Light 10h 58m
Length of Day
10h 04m
Waning Crescent, 18% of the Moon is Illuminated
Dec 9
Waning Crescent
Dec 13
New
Dec 19
First Quarter
Dec 28
Full
Jan 4
Last Quarter

Hourly Weather History & Observations

Time (CST) Temp. Dew Point Humidity Pressure Visibility Wind Dir Wind Speed Gust Speed Precip Events Conditions
12:15 AM 64.4 °F 62.6 °F 94% 29.87 in 10.0 mi SSE 10.4 mph - N/A   Overcast
12:35 AM 64.4 °F 62.6 °F 94% 29.86 in 10.0 mi SSE 9.2 mph - N/A   Overcast
12:55 AM 64.4 °F 62.6 °F 94% 29.86 in 10.0 mi SSE 8.1 mph - N/A   Overcast
1:15 AM 64.4 °F 62.6 °F 94% 29.86 in 7.0 mi South 8.1 mph - N/A   Overcast
1:35 AM 64.4 °F 62.6 °F 94% 29.86 in 10.0 mi South 8.1 mph - N/A   Overcast
1:55 AM 66.2 °F 62.6 °F 88% 29.86 in 10.0 mi South 9.2 mph - N/A   Overcast
2:15 AM 68.0 °F 64.4 °F 88% 29.86 in 10.0 mi South 9.2 mph - N/A   Overcast
2:35 AM 68.0 °F 64.4 °F 88% 29.86 in 10.0 mi South 8.1 mph - N/A   Overcast
2:55 AM 68.0 °F 64.4 °F 88% 29.86 in 10.0 mi South 6.9 mph - N/A   Overcast
3:15 AM 68.0 °F 62.6 °F 83% 29.86 in 10.0 mi SSE 6.9 mph - N/A   Overcast
3:35 AM 68.0 °F 62.6 °F 83% 29.86 in 10.0 mi SSE 10.4 mph - N/A   Overcast
3:55 AM 68.0 °F 62.6 °F 83% 29.86 in 10.0 mi SSE 9.2 mph - N/A   Overcast
4:15 AM 68.0 °F 62.6 °F 83% 29.86 in 10.0 mi South 6.9 mph - N/A   Overcast
4:35 AM 68.0 °F 62.6 °F 83% 29.86 in 10.0 mi South 6.9 mph - N/A   Overcast
4:55 AM 68.0 °F 62.6 °F 83% 29.86 in 10.0 mi South 9.2 mph - N/A   Overcast
5:15 AM 68.0 °F 62.6 °F 83% 29.86 in 10.0 mi SSE 9.2 mph - N/A   Overcast
5:35 AM 68.0 °F 62.6 °F 83% 29.87 in 10.0 mi South 8.1 mph - N/A   Overcast
5:55 AM 68.0 °F 62.6 °F 83% 29.88 in 10.0 mi South 8.1 mph - N/A   Overcast
6:15 AM 66.2 °F 62.6 °F 88% 29.87 in 10.0 mi SSE 9.2 mph - N/A   Overcast
6:35 AM 66.2 °F 62.6 °F 88% 29.88 in 10.0 mi SSE 8.1 mph - N/A   Overcast
6:55 AM 66.2 °F 62.6 °F 88% 29.88 in 10.0 mi SSE 10.4 mph - N/A   Overcast
7:15 AM 68.0 °F 62.6 °F 83% 29.88 in 10.0 mi South 8.1 mph - N/A   Overcast
7:35 AM 68.0 °F 62.6 °F 83% 29.89 in 10.0 mi South 8.1 mph - N/A   Overcast
7:55 AM 68.0 °F 62.6 °F 83% 29.89 in 10.0 mi South 10.4 mph - N/A   Overcast
8:15 AM 68.0 °F 62.6 °F 83% 29.89 in 10.0 mi SSE 10.4 mph - N/A   Overcast
8:35 AM 68.0 °F 62.6 °F 83% 29.90 in 10.0 mi SSE 9.2 mph - N/A   Overcast
8:55 AM 68.0 °F 62.6 °F 83% 29.90 in 10.0 mi South 11.5 mph - N/A   Overcast
9:15 AM 68.0 °F 62.6 °F 83% 29.91 in 10.0 mi South 9.2 mph - N/A   Overcast
9:35 AM 69.8 °F 64.4 °F 83% 29.91 in 10.0 mi South 10.4 mph - N/A   Overcast
9:55 AM 69.8 °F 64.4 °F 83% 29.91 in 7.0 mi South 10.4 mph - N/A   Overcast
10:35 AM 69.8 °F 64.4 °F 83% 29.90 in 7.0 mi South 8.1 mph - N/A   Overcast
10:55 AM 69.8 °F 62.6 °F 78% 29.90 in 10.0 mi SSE 8.1 mph - N/A   Overcast
11:15 AM 69.8 °F 62.6 °F 78% 29.89 in 10.0 mi South 6.9 mph - N/A   Overcast
11:35 AM 69.8 °F 62.6 °F 78% 29.88 in 10.0 mi South 8.1 mph - N/A   Overcast
11:55 AM 69.8 °F 62.6 °F 78% 29.87 in 10.0 mi South 10.4 mph 21.9 mph N/A   Overcast
12:15 PM 71.6 °F 62.6 °F 73% 29.86 in 10.0 mi South 13.8 mph 20.7 mph N/A   Overcast
12:35 PM 71.6 °F 62.6 °F 73% 29.84 in 10.0 mi South 17.3 mph 25.3 mph N/A   Scattered Clouds
12:55 PM 71.6 °F 62.6 °F 73% 29.83 in 10.0 mi South 11.5 mph - N/A   Mostly Cloudy
1:15 PM 71.6 °F 60.8 °F 69% 29.83 in 10.0 mi South 18.4 mph 23.0 mph N/A   Mostly Cloudy
1:35 PM 71.6 °F 62.6 °F 73% 29.82 in 10.0 mi SSW 12.7 mph 18.4 mph N/A   Mostly Cloudy
1:55 PM 71.6 °F 62.6 °F 73% 29.82 in 10.0 mi SSW 12.7 mph 18.4 mph N/A   Overcast
2:35 PM 73.4 °F 62.6 °F 69% 29.81 in 10.0 mi South 9.2 mph - N/A   Scattered Clouds
2:55 PM 71.6 °F 60.8 °F 69% 29.80 in 10.0 mi South 9.2 mph - N/A   Clear
3:15 PM 71.6 °F 60.8 °F 69% 29.80 in 10.0 mi South 9.2 mph 19.6 mph N/A   Clear
3:35 PM 71.6 °F 60.8 °F 69% 29.80 in 10.0 mi South 6.9 mph - N/A   Clear
3:55 PM 71.6 °F 62.6 °F 73% 29.80 in 10.0 mi South 6.9 mph - N/A   Clear
4:15 PM 71.6 °F 60.8 °F 69% 29.80 in 10.0 mi South 6.9 mph - N/A   Clear
4:35 PM 71.6 °F 62.6 °F 73% 29.81 in 10.0 mi South 5.8 mph - N/A   Clear
4:55 PM 71.6 °F 62.6 °F 73% 29.80 in 7.0 mi SSW 3.5 mph - N/A   Scattered Clouds
5:15 PM 69.8 °F 64.4 °F 83% 29.79 in 7.0 mi Calm Calm - N/A   Scattered Clouds
5:35 PM 66.2 °F 62.6 °F 88% 29.79 in 3.0 mi NNW 4.6 mph - N/A   Scattered Clouds
5:55 PM 68.0 °F 62.6 °F 83% 29.81 in 7.0 mi WNW 16.1 mph - 0.04 in   Mostly Cloudy
6:15 PM 64.4 °F 60.8 °F 88% 29.81 in 7.0 mi West 3.5 mph - 0.10 in   Mostly Cloudy
6:35 PM 64.4 °F 60.8 °F 88% 29.81 in 7.0 mi West 8.1 mph - 0.10 in   Scattered Clouds
6:55 PM 64.4 °F 60.8 °F 88% 29.83 in 7.0 mi WNW 5.8 mph - 0.10 in   Scattered Clouds
7:15 PM 64.4 °F 60.8 °F 88% 29.83 in 7.0 mi NW 6.9 mph - N/A   Scattered Clouds
7:35 PM 64.4 °F 59.0 °F 83% 29.83 in 10.0 mi NW 10.4 mph - N/A   Scattered Clouds
8:15 PM 60.8 °F 51.8 °F 72% 29.86 in 10.0 mi WNW 11.5 mph - N/A   Overcast
8:35 PM 59.0 °F 51.8 °F 77% 29.86 in 7.0 mi NW 11.5 mph - N/A   Overcast
8:55 PM 57.2 °F 50.0 °F 77% 29.87 in 7.0 mi WNW 11.5 mph 16.1 mph N/A   Overcast
9:15 PM 57.2 °F 50.0 °F 77% 29.86 in 7.0 mi WNW 10.4 mph - N/A   Overcast
9:35 PM 55.4 °F 50.0 °F 82% 29.88 in 10.0 mi WNW 8.1 mph - N/A   Overcast
9:55 PM 55.4 °F 48.2 °F 77% 29.91 in 7.0 mi West 12.7 mph - N/A   Overcast
10:15 PM 55.4 °F 46.4 °F 72% 29.91 in 7.0 mi WNW 10.4 mph - N/A   Overcast
10:55 PM 55.4 °F 46.4 °F 72% 29.92 in 10.0 mi WNW 12.7 mph - N/A   Overcast
11:15 PM 51.8 °F 44.6 °F 76% 29.91 in 10.0 mi NNW 13.8 mph 17.3 mph N/A   Overcast
11:35 PM 51.8 °F 44.6 °F 76% 29.90 in 10.0 mi NW 12.7 mph 16.1 mph N/A   Overcast
11:55 PM 51.8 °F 44.6 °F 76% 29.94 in 10.0 mi West 5.8 mph - N/A   Overcast